Regional Weather Roundup
Issued by NWS Bismarck, ND

Home | Current Version | Previous Version | Text Only | Print | Product List | Glossary On
Versions: 1 2 3 4 5 6 7 8 9 10 11 12 13 14 15 16 17 18 19 20 21 22 23 24 25 26 27 28 29 30 31 32 33 34 35 36 37 38 39 40 41 42 43 44 45 46 47 48 49 50
778
ASUS43 KBIS 161110
RWRBIS

NWR BROADCAST TEXT
NATIONAL WEATHER SERVICE BISMARCK ND
500 AM CST MON JAN 16 2017

NOTE: "FAIR" INDICATES FEW OR NO CLOUDS BELOW 12,000 FEET WITH NO
SIGNIFICANT WEATHER AND/OR OBSTRUCTIONS TO VISIBILITY.


CITY           SKY/WX    TMP DP  RH WIND       PRES   REMARKS
WILLISTON      FAIR      11   6  81 NW8       30.07R WCI  -1
MINOT          FAIR      16   8  71 SW12      30.00R WCI   3
MINOT AFB      NOT AVBL
BISMARCK       FAIR      -7 -12  79 CALM      30.07R
DICKINSON      FAIR      15   6  67 W14       30.00F WCI   0
GARRISON         N/A     13   5  70 W9        30.01S WCI   1
HETTINGER ARPT FAIR      12   4  70 NW6       30.05F WCI   3
JAMESTOWN      FAIR      14   5  67 NW5       30.04R WCI   6
CARRINGTON     FAIR      12   7  79 SW10      30.04S WCI  -1
HAZEN            N/A    N/A N/A N/A SW8       30.06R
RUGBY            N/A      1   0  92 SW12      29.99F WCI -15
STANLEY        FAIR      10   7  85 W10G18    30.02R WCI  -3
TIOGA          FAIR      10   9  92 W10       30.03F WCI  -3
WATFORD CITY   FAIR       7   0  72 SW7       30.07R WCI  -5
$$

CITY           SKY/WX    TMP DP  RH WIND       PRES   REMARKS
GRAND FORKS    FAIR       5  -1  76 S7        30.03F WCI  -7
GRAND FORKS AF FAIR       5  -1  76 W7        30.02F WCI  -7
DEVILS LAKE    FAIR      10   4  76 SW10      29.98F WCI  -4
FARGO          FAIR      11   8  88 S8        30.07F WCI  -1
CAVALIER         N/A      7   3  85 S6        29.99F WCI  -3
GRAFTON        FAIR      10   5  79 SW14      30.03F WCI  -5
GWINNER        FAIR      12   9  85 SW10      30.07S WCI  -1
ROLLA            N/A    N/A N/A N/A MISG        N/A
$$

CITY           SKY/WX    TMP DP  RH WIND       PRES   REMARKS
ABERDEEN       FAIR       0  -5  79 S6        30.10S WCI -12
MOBRIDGE       FAIR      -1  -6  79 SE3       30.04F
BUFFALO          N/A     13   3  64 W13       29.99R WCI  -2
RAPID CITY     FAIR      26   9  48 W8        30.05R WCI  18
GLASGOW        FAIR       3  -2  79 NW7       30.09R WCI  -9
SIDNEY         FAIR       3  -1  83 S5        30.10R WCI  -6
WOLF POINT     FAIR       5  -2  72 SW12      30.11R WCI -11
GLENDIVE       FAIR       4  -2  76 S10       30.07S WCI -11
MILES CITY     FAIR       4  -2  76 SW9       30.12F WCI -10
BAKER          FAIR      13   4  67 W12       30.07S WCI  -1
$$

CITY           SKY/WX    TMP DP  RH WIND       PRES   REMARKS
BILLINGS       FAIR      15   3  59 SW20      30.13S WCI  -2
GREAT FALLS    FAIR      23   9  55 S17       30.12R WCI   9
REGINA         CLEAR     12  10  92 CALM      30.01F
ESTEVAN        PTCLDY     9   7  92 W14       30.02F WCI  -8
$$





USA.gov is the U.S. government's official web portal to all federal, state and local government web resources and services.